Погода в Долгом

Россия / Орловская область     52°03′25″N   37°31′42″E
темп.,
°C
ветер,
м/с
пор.,
м/с
влажн.,
%
обл.,
%
осадки,
мм/ч
давл.,
гПа
погр.,
м
13 апреля, вт
вт1300:00+12вюв4117299 0.0 1024182
03:00+10вюв4107579 0.0 1024156
06:00+9вюв41078100 0.0 1024188
09:00+14юв6105926 0.0 1024425
12:00+18юв7103797 0.0 10231106
15:00+20юв812305 0.0 10221857
18:00+18юв5104252 0.0 1021352
21:00+14вюв4116199 0.0 1021196
14 апреля, ср
ср1400:00+13юв4864100 0.0 1021173
03:00+11юв3469100 0.0 102164
06:00+9вюв367273 0.0 102092
09:00+14юв585115 0.0 1019446
12:00+17ююв684087 0.0 10181170
15:00+18ююв7835100 0.0 10171951
18:00+16ю3649100 0.0 1016286
21:00+11ююз3480100 0.0 101864
15 апреля, чт
чт1500:00+10ю2285100 0.0 101711
03:00+10ююз1184100 0.0 101710
06:00+10св1180100 0.0 101612
09:00+13в1365100 0.0 1016332
12:00+12ю3775100 0.3 1016410
15:00+14ююз3364100 0.8 1015581
18:00+12юз3577100 1.3 1015141
21:00+11с2281100 1.8 101536
16 апреля, пт
пт1600:00+11св2286100 0.4 101439
03:00+9вюв2288100 0.4 101427
06:00+9юв33885 0.0 101443
09:00+14юв45665 0.0 1015484
12:00+15ююв6663100 0.9 1015871
15:00+16вюв4555100 1.3 10151079
18:00+15всв346633 0.4 1015320
21:00+11в228459 0.6 101627
17 апреля, сб
сб1700:00+11св599078 0.4 1016196
03:00+11всв7148398 1.0 1016385
06:00+10всв7148451 0.5 1017509
09:00+12всв8117790 1.0 1019789
12:00+12всв71075100 0.1 10201069
15:00+13всв81165100 0.1 10211209
18:00+13всв8125495 0.0 10231249
21:00+9всв715517 0.0 1026564